CW9533 Torre Faro Messina IT current weather conditions

sailwx.info

Wind from 294 at 4 knots gusting 9

Air temperature 13.9° C
Dewpoint 9.3° C

Last reported at 2020-Feb-22 08:00 UTC.
Time now 2020-Feb-22 09:15 UTC

Location: N 38°16' E 015°39'.
View on Google Maps.

See reports from other nearby stations

  
Tides and Currents Weather Stations Pressure Air Temp Water Temp Dewpoint Dewpoint Depression Visibility Wind Speed Wind Dir Waves Ship Positions
date/time (UTC)wind fromknots sea level pressurealtimeterstation pressurevisibilityair tempwater tempwave heightnotes
2020-Feb-22 08:00 294 4 gusting 9 13.9
2020-Feb-22 07:45 312 2 gusting 9 13.9
2020-Feb-22 07:30 319 0 gusting 6 13.3
2020-Feb-22 07:00 324 12.8
2020-Feb-22 06:45 319 12.8
2020-Feb-22 06:30 311 12.8
2020-Feb-22 06:00 309 12.2
2020-Feb-22 05:45 309 12.2
2020-Feb-22 05:00 304 0 gusting 6 12.2
2020-Feb-22 04:45 324 12.8
2020-Feb-22 04:30 304 2 gusting 7 12.2
2020-Feb-22 04:00 302 12.2
2020-Feb-22 03:45 323 0 gusting 5 12.2
2020-Feb-22 03:30 308 12.2
2020-Feb-22 03:00 301 11.7
2020-Feb-22 02:45 333 11.7
2020-Feb-22 02:30 333 11.7
2020-Feb-22 02:00 333 11.7
2020-Feb-22 01:45 355 11.7
2020-Feb-22 01:30 011 11.7
2020-Feb-22 01:00 036 12.2
2020-Feb-22 00:45 040 12.2
2020-Feb-22 00:30 042 12.2
2020-Feb-22 00:00 042 12.2
2020-Feb-21 23:48 042 12.2
2020-Feb-21 23:31 042 12.2
2020-Feb-21 23:02 042 12.8
2020-Feb-21 22:46 041 12.8
2020-Feb-21 22:31 041 12.8
2020-Feb-21 22:02 042 12.8
2020-Feb-21 21:46 042 13.3
2020-Feb-21 21:31 042 13.3
2020-Feb-21 21:01 041 13.3
2020-Feb-21 20:46 042 0 gusting 5 13.3
2020-Feb-21 20:31 030 13.3
2020-Feb-21 20:01 005 13.3
2020-Feb-21 19:46 360 13.3
2020-Feb-21 19:31 011 13.3
2020-Feb-21 19:01 360 13.9
2020-Feb-21 18:46 355 13.9
2020-Feb-21 18:31 355 13.9
2020-Feb-21 18:01 015 13.9
2020-Feb-21 17:46 005 2 gusting 6 13.9
2020-Feb-21 17:31 360 1 gusting 6 13.9
2020-Feb-21 17:01 023 0 gusting 5 13.9
2020-Feb-21 16:46 020 13.9
2020-Feb-21 16:01 032 0 gusting 5 15.0
2020-Feb-21 15:46 030 15.0
2020-Feb-21 15:31 019 15.0
2020-Feb-21 15:01 015 15.6
2020-Feb-21 14:47 349 0 gusting 4 15.0
2020-Feb-21 14:31 355 15.6
2020-Feb-21 14:01 038 0 gusting 6 15.6
2020-Feb-21 13:46 013 0 gusting 8 15.6
2020-Feb-21 13:30 018 3 gusting 8 15.6
2020-Feb-21 13:01 315 2 gusting 8 15.6
2020-Feb-21 12:30 048 16.1
2020-Feb-21 12:01 348 2 gusting 6 16.1
2020-Feb-21 11:46 026 16.1
2020-Feb-21 11:30 053 15.6
2020-Feb-21 11:01 022 16.1
2020-Feb-21 10:46 052 15.6
2020-Feb-21 10:31 044 15.6
2020-Feb-21 10:15 338 0 gusting 5 15.0
2020-Feb-21 10:00 355 0 gusting 5 15.0
2020-Feb-21 09:30 027 0 gusting 4 15.0
2020-Feb-21 09:15 005 1 gusting 6 15.0
2020-Feb-21 09:00 347 1 gusting 5 15.0
2020-Feb-21 08:31 013 1 gusting 6 14.4
2020-Feb-21 08:16 360 0 gusting 6 14.4
2020-Feb-21 08:00 011 1 gusting 6 14.4
2020-Feb-21 07:31 005 3 gusting 6 13.9
2020-Feb-21 07:16 336 1 gusting 6 13.3
2020-Feb-21 07:00 015 0 gusting 6 13.3
2020-Feb-21 06:30 355 4 gusting 8 13.3
2020-Feb-21 06:15 034 4 gusting 8 12.8
2020-Feb-21 06:00 355 2 gusting 7 12.8
2020-Feb-21 05:30 005 4 gusting 8 12.8
2020-Feb-21 05:15 012 6 gusting 9 12.8
2020-Feb-21 05:00 328 5 gusting 9 12.8
2020-Feb-21 04:30 360 7 gusting 12 13.3
2020-Feb-21 04:15 355 6 gusting 11 13.3
2020-Feb-21 04:00 360 6 gusting 13 13.3
2020-Feb-21 03:30 360 7 gusting 13 13.3
2020-Feb-21 03:15 338 4 gusting 8 13.3
2020-Feb-21 03:00 328 5 gusting 9 13.3
2020-Feb-21 02:30 009 6 gusting 11 13.3
2020-Feb-21 02:15 026 5 gusting 12 13.3
2020-Feb-21 02:02 360 6 gusting 12 13.3
2020-Feb-21 01:32 335 5 gusting 9 13.3
2020-Feb-21 01:16 348 5 gusting 10 13.3
2020-Feb-21 01:01 027 4 gusting 11 13.3
2020-Feb-21 00:31 329 6 gusting 11 13.3
2020-Feb-21 00:15 339 6 gusting 11 13.3
2020-Feb-21 00:00 015 6 gusting 10 13.9
2020-Feb-20 23:31 325 6 gusting 10 13.9
2020-Feb-20 23:16 360 6 gusting 9 13.9
2020-Feb-20 23:00 355 4 gusting 11 13.9
2020-Feb-20 22:31 355 6 gusting 11 13.9
2020-Feb-20 22:16 333 6 gusting 12 13.9
2020-Feb-20 22:01 294 4 gusting 11 13.9
2020-Feb-20 21:31 337 5 gusting 10 13.9
2020-Feb-20 21:16 342 6 gusting 12 13.9
2020-Feb-20 20:30 325 7 gusting 13 13.9
2020-Feb-20 20:16 338 6 gusting 13 13.9
2020-Feb-20 20:00 317 8 gusting 14 13.9
2020-Feb-20 19:31 338 8 gusting 14 13.9
2020-Feb-20 19:16 350 9 gusting 13 13.9
2020-Feb-20 19:00 321 6 gusting 17 13.9
2020-Feb-20 18:30 336 6 gusting 13 13.9
2020-Feb-20 18:16 350 6 gusting 12 13.9
2020-Feb-20 18:00 360 5 gusting 13 13.9
2020-Feb-20 17:30 309 8 gusting 14 13.9
2020-Feb-20 17:15 319 7 gusting 13 13.9
2020-Feb-20 17:00 315 6 gusting 12 13.9
2020-Feb-20 16:31 329 6 gusting 13 13.9
2020-Feb-20 16:15 294 9 gusting 15 13.9
2020-Feb-20 16:00 319 10 gusting 15 14.4
2020-Feb-20 15:31 315 8 gusting 16 14.4
2020-Feb-20 15:15 327 8 gusting 16 15.0
2020-Feb-20 15:01 329 6 gusting 13 15.0
2020-Feb-20 14:15 355 9 gusting 14 15.6
2020-Feb-20 14:01 338 7 gusting 14 15.6
2020-Feb-20 13:30 321 6 gusting 14 16.1
2020-Feb-20 13:16 333 7 gusting 14 16.1
2020-Feb-20 13:00 319 7 gusting 14 16.1
2020-Feb-20 12:30 341 6 gusting 13 16.1
2020-Feb-20 12:15 345 6 gusting 12 16.7
2020-Feb-20 12:00 024 4 gusting 8 16.1
2020-Feb-20 11:31 015 6 gusting 11 15.0
2020-Feb-20 11:15 337 6 gusting 12 15.0
2020-Feb-20 11:00 355 4 gusting 9 15.6
2020-Feb-20 10:30 350 6 gusting 11 15.6
2020-Feb-20 10:15 023 6 gusting 11 15.6
2020-Feb-20 10:00 355 6 gusting 12 15.6
2020-Feb-20 09:30 012 6 gusting 13 15.6
2020-Feb-20 09:15 355 7 gusting 14 15.6
2020-Feb-20 09:00 355 6 gusting 14 15.6